Year,Month,Day,Hour,Minute,Value (Times are PST for windspeed in km/hr)
2012,01,04,00,02,0.00
2012,01,04,00,03,0.00
2012,01,04,00,04,1.60
2012,01,04,00,05,1.60
2012,01,04,00,06,0.00
2012,01,04,00,07,0.00
2012,01,04,00,08,0.00
2012,01,04,00,09,0.00
2012,01,04,00,10,0.00
2012,01,04,00,11,0.00
2012,01,04,00,12,1.60
2012,01,04,00,13,1.60
2012,01,04,00,14,3.20
2012,01,04,00,15,4.80
2012,01,04,00,16,1.60
2012,01,04,00,18,0.00
2012,01,04,00,19,1.60
2012,01,04,00,20,1.60
2012,01,04,00,21,0.00
2012,01,04,00,22,0.00
2012,01,04,00,23,0.00
2012,01,04,00,24,0.00
2012,01,04,00,25,1.60
2012,01,04,00,26,0.00
2012,01,04,00,27,0.00
2012,01,04,00,28,0.00
2012,01,04,00,29,1.60
2012,01,04,00,30,1.60
2012,01,04,00,31,0.00
2012,01,04,00,32,4.80
2012,01,04,00,33,9.70
2012,01,04,00,34,3.20
2012,01,04,00,35,1.60
2012,01,04,00,36,4.80
2012,01,04,00,37,3.20
2012,01,04,00,38,3.20
2012,01,04,00,40,0.00
2012,01,04,00,41,1.60
2012,01,04,00,42,3.20
2012,01,04,00,43,1.60
2012,01,04,00,44,0.00
2012,01,04,00,45,0.00
2012,01,04,00,46,4.80
2012,01,04,00,47,1.60
2012,01,04,00,48,0.00
2012,01,04,00,49,0.00
2012,01,04,00,50,1.60
2012,01,04,00,51,3.20
2012,01,04,00,52,1.60
2012,01,04,00,53,0.00
2012,01,04,00,55,3.20
2012,01,04,00,56,0.00
2012,01,04,00,57,6.40
2012,01,04,00,58,4.80
2012,01,04,00,59,3.20
2012,01,04,01,00,1.60
2012,01,04,01,01,4.80
2012,01,04,01,02,1.60
2012,01,04,01,04,3.20
2012,01,04,01,05,3.20
2012,01,04,01,06,3.20
2012,01,04,01,07,1.60
2012,01,04,01,09,3.20
2012,01,04,01,10,1.60
2012,01,04,01,11,0.00
2012,01,04,01,12,1.60
2012,01,04,01,14,4.80
2012,01,04,01,15,3.20
2012,01,04,01,16,0.00
2012,01,04,01,17,6.40
2012,01,04,01,18,6.40
2012,01,04,01,19,3.20
2012,01,04,01,20,3.20
2012,01,04,01,21,4.80
2012,01,04,01,22,3.20
2012,01,04,01,24,1.60
2012,01,04,01,25,3.20
2012,01,04,01,26,0.00
2012,01,04,01,27,1.60
2012,01,04,01,29,4.80
2012,01,04,01,30,1.60
2012,01,04,01,31,1.60
2012,01,04,01,32,1.60
2012,01,04,01,34,4.80
2012,01,04,01,35,1.60
2012,01,04,01,36,3.20
2012,01,04,01,37,4.80
2012,01,04,01,39,4.80
2012,01,04,01,40,1.60
2012,01,04,01,41,1.60
2012,01,04,01,43,0.00
2012,01,04,01,44,0.00
2012,01,04,01,45,3.20
2012,01,04,01,46,0.00
2012,01,04,01,47,0.00
2012,01,04,01,48,3.20
2012,01,04,01,49,1.60
2012,01,04,01,50,3.20
2012,01,04,01,52,0.00
2012,01,04,01,53,1.60
2012,01,04,01,54,4.80
2012,01,04,01,55,3.20
2012,01,04,01,57,0.00
2012,01,04,01,58,0.00
2012,01,04,01,59,0.00
2012,01,04,02,00,0.00
2012,01,04,02,02,0.00
2012,01,04,02,03,0.00
2012,01,04,02,04,3.20
2012,01,04,02,06,1.60
2012,01,04,02,07,0.00
2012,01,04,02,08,0.00
2012,01,04,02,09,0.00
2012,01,04,02,11,1.60
2012,01,04,02,12,1.60
2012,01,04,02,13,1.60
2012,01,04,02,15,0.00
2012,01,04,02,16,1.60
2012,01,04,02,17,3.20
2012,01,04,02,18,0.00
2012,01,04,02,20,1.60
2012,01,04,02,21,1.60
2012,01,04,02,22,1.60
2012,01,04,02,23,4.80
2012,01,04,02,24,6.40
2012,01,04,02,26,4.80
2012,01,04,02,27,0.00
2012,01,04,02,28,0.00
2012,01,04,02,29,0.00
2012,01,04,02,30,1.60
2012,01,04,02,32,3.20
2012,01,04,02,33,3.20
2012,01,04,02,34,4.80
2012,01,04,02,35,0.00
2012,01,04,02,37,0.00
2012,01,04,02,38,0.00
2012,01,04,02,39,0.00
2012,01,04,02,40,1.60
2012,01,04,02,41,0.00
2012,01,04,02,43,0.00
2012,01,04,02,44,0.00
2012,01,04,02,45,3.20
2012,01,04,02,46,1.60
2012,01,04,02,48,1.60
2012,01,04,02,49,0.00
2012,01,04,02,50,0.00
2012,01,04,02,51,1.60
2012,01,04,02,53,3.20
2012,01,04,02,54,0.00
2012,01,04,02,55,1.60
2012,01,04,02,56,1.60
2012,01,04,02,58,0.00
2012,01,04,02,59,0.00
2012,01,04,03,00,0.00
2012,01,04,03,01,1.60
2012,01,04,03,02,1.60
2012,01,04,03,04,0.00
2012,01,04,03,05,0.00
2012,01,04,03,06,0.00
2012,01,04,03,07,0.00
2012,01,04,03,09,0.00
2012,01,04,03,10,0.00
2012,01,04,03,11,0.00
2012,01,04,03,12,3.20
2012,01,04,03,13,4.80
2012,01,04,03,15,0.00
2012,01,04,03,16,4.80
2012,01,04,03,17,0.00
2012,01,04,03,19,3.20
2012,01,04,03,20,6.40
2012,01,04,03,21,3.20
2012,01,04,03,22,4.80
2012,01,04,03,23,3.20
2012,01,04,03,25,0.00
2012,01,04,03,26,0.00
2012,01,04,03,27,1.60
2012,01,04,03,28,0.00
2012,01,04,03,30,1.60
2012,01,04,03,31,4.80
2012,01,04,03,32,1.60
2012,01,04,03,33,1.60
2012,01,04,03,34,0.00
2012,01,04,03,35,1.60
2012,01,04,03,36,3.20
2012,01,04,03,37,1.60
2012,01,04,03,38,0.00
2012,01,04,03,39,4.80
2012,01,04,03,40,0.00
2012,01,04,03,41,3.20
2012,01,04,03,42,3.20
2012,01,04,03,43,3.20
2012,01,04,03,44,3.20
2012,01,04,03,45,3.20
2012,01,04,03,46,4.80
2012,01,04,03,47,1.60
2012,01,04,03,48,0.00
2012,01,04,03,49,0.00
2012,01,04,03,50,0.00
2012,01,04,03,51,0.00
2012,01,04,03,52,0.00
2012,01,04,03,53,6.40
2012,01,04,03,54,4.80
2012,01,04,03,55,3.20
2012,01,04,03,56,4.80
2012,01,04,03,57,4.80
2012,01,04,03,58,3.20
2012,01,04,03,59,3.20
2012,01,04,04,01,4.80
2012,01,04,04,02,3.20
2012,01,04,04,03,4.80
2012,01,04,04,04,3.20
2012,01,04,04,05,3.20
2012,01,04,04,06,3.20
2012,01,04,04,07,0.00
2012,01,04,04,08,0.00
2012,01,04,04,09,1.60
2012,01,04,04,10,3.20
2012,01,04,04,11,1.60
2012,01,04,04,12,0.00
2012,01,04,04,13,3.20
2012,01,04,04,14,0.00
2012,01,04,04,15,0.00
2012,01,04,04,16,0.00
2012,01,04,04,17,8.00
2012,01,04,04,18,8.00
2012,01,04,04,20,6.40
2012,01,04,04,21,4.80
2012,01,04,04,22,4.80
2012,01,04,04,23,8.00
2012,01,04,04,24,6.40
2012,01,04,04,25,4.80
2012,01,04,04,26,4.80
2012,01,04,04,27,4.80
2012,01,04,04,29,6.40
2012,01,04,04,30,3.20
2012,01,04,04,31,4.80
2012,01,04,04,32,4.80
2012,01,04,04,33,3.20
2012,01,04,04,34,4.80
2012,01,04,04,35,6.40
2012,01,04,04,36,8.00
2012,01,04,04,37,8.00
2012,01,04,04,38,6.40
2012,01,04,04,39,8.00
2012,01,04,04,41,8.00
2012,01,04,04,42,6.40
2012,01,04,04,43,4.80
2012,01,04,04,44,9.70
2012,01,04,04,45,8.00
2012,01,04,04,46,8.00
2012,01,04,04,47,4.80
2012,01,04,04,48,4.80
2012,01,04,04,50,6.40
2012,01,04,04,51,6.40
2012,01,04,04,52,1.60
2012,01,04,04,53,4.80
2012,01,04,04,54,6.40
2012,01,04,04,55,6.40
2012,01,04,04,56,8.00
2012,01,04,04,57,8.00
2012,01,04,04,58,9.70
2012,01,04,04,59,8.00
2012,01,04,05,00,9.70
2012,01,04,05,01,9.70
2012,01,04,05,02,8.00
2012,01,04,05,03,4.80
2012,01,04,05,05,3.20
2012,01,04,05,06,8.00
2012,01,04,05,07,8.00
2012,01,04,05,08,4.80
2012,01,04,05,10,4.80
2012,01,04,05,11,3.20
2012,01,04,05,12,4.80
2012,01,04,05,13,9.70
2012,01,04,05,15,3.20
2012,01,04,05,16,4.80
2012,01,04,05,17,4.80
2012,01,04,05,18,4.80
2012,01,04,05,19,3.20
2012,01,04,05,21,1.60
2012,01,04,05,22,4.80
2012,01,04,05,23,4.80
2012,01,04,05,24,4.80
2012,01,04,05,25,3.20
2012,01,04,05,26,1.60
2012,01,04,05,27,0.00
2012,01,04,05,28,1.60
2012,01,04,05,29,1.60
2012,01,04,05,30,6.40
2012,01,04,05,31,6.40
2012,01,04,05,32,4.80
2012,01,04,05,33,4.80
2012,01,04,05,34,3.20
2012,01,04,05,35,3.20
2012,01,04,05,36,4.80
2012,01,04,05,37,1.60
2012,01,04,05,38,6.40
2012,01,04,05,39,9.70
2012,01,04,05,40,11.30
2012,01,04,05,41,9.70
2012,01,04,05,42,6.40
2012,01,04,05,43,8.00
2012,01,04,05,44,6.40
2012,01,04,05,45,6.40
2012,01,04,05,46,11.30
2012,01,04,05,47,9.70
2012,01,04,05,48,12.90
2012,01,04,05,49,11.30
2012,01,04,05,50,9.70
2012,01,04,05,51,8.00
2012,01,04,05,52,9.70
2012,01,04,05,53,9.70
2012,01,04,05,54,11.30
2012,01,04,05,55,9.70
2012,01,04,05,56,8.00
2012,01,04,05,57,6.40
2012,01,04,05,58,8.00
2012,01,04,05,59,12.90
2012,01,04,06,00,4.80
2012,01,04,06,01,8.00
2012,01,04,06,02,6.40
2012,01,04,06,04,3.20
2012,01,04,06,05,4.80
2012,01,04,06,06,1.60
2012,01,04,06,07,3.20
2012,01,04,06,08,6.40
2012,01,04,06,09,1.60
2012,01,04,06,10,3.20
2012,01,04,06,11,9.70
2012,01,04,06,13,0.00
2012,01,04,06,14,6.40
2012,01,04,06,15,6.40
2012,01,04,06,16,4.80
2012,01,04,06,17,1.60
2012,01,04,06,18,4.80
2012,01,04,06,19,4.80
2012,01,04,06,20,0.00
2012,01,04,06,21,4.80
2012,01,04,06,22,4.80
2012,01,04,06,23,1.60
2012,01,04,06,24,4.80
2012,01,04,06,25,6.40
2012,01,04,06,26,3.20
2012,01,04,06,27,8.00
2012,01,04,06,28,6.40
2012,01,04,06,29,4.80
2012,01,04,06,30,6.40
2012,01,04,06,31,1.60
2012,01,04,06,32,1.60
2012,01,04,06,34,1.60
2012,01,04,06,35,0.00
2012,01,04,06,36,0.00
2012,01,04,06,38,0.00
2012,01,04,06,39,1.60
2012,01,04,06,40,4.80
2012,01,04,06,41,4.80
2012,01,04,06,42,4.80
2012,01,04,06,44,4.80
2012,01,04,06,45,4.80
2012,01,04,06,46,4.80
2012,01,04,06,47,4.80
2012,01,04,06,49,6.40
2012,01,04,06,50,4.80
2012,01,04,06,51,0.00
2012,01,04,06,52,3.20
2012,01,04,06,54,3.20
2012,01,04,06,55,4.80
2012,01,04,06,56,4.80
2012,01,04,06,57,3.20
2012,01,04,06,59,3.20
2012,01,04,07,00,3.20
2012,01,04,07,01,4.80
2012,01,04,07,02,1.60
2012,01,04,07,04,0.00
2012,01,04,07,05,1.60
2012,01,04,07,06,1.60
2012,01,04,07,08,0.00
2012,01,04,07,09,6.40
2012,01,04,07,10,4.80
2012,01,04,07,12,3.20
2012,01,04,07,13,1.60
2012,01,04,07,14,0.00
2012,01,04,07,15,3.20
2012,01,04,07,17,3.20
2012,01,04,07,18,3.20
2012,01,04,07,19,3.20
2012,01,04,07,20,3.20
2012,01,04,07,21,1.60
2012,01,04,07,22,0.00
2012,01,04,07,23,0.00
2012,01,04,07,24,0.00
2012,01,04,07,26,0.00
2012,01,04,07,27,0.00
2012,01,04,07,28,0.00
2012,01,04,07,30,0.00
2012,01,04,07,31,0.00
2012,01,04,07,32,0.00
2012,01,04,07,33,0.00
2012,01,04,07,34,0.00
2012,01,04,07,35,0.00
2012,01,04,07,36,0.00
2012,01,04,07,37,0.00
2012,01,04,07,38,0.00
2012,01,04,07,40,0.00
2012,01,04,07,41,0.00
2012,01,04,07,42,0.00
2012,01,04,07,43,0.00
2012,01,04,07,45,0.00
2012,01,04,07,46,0.00
2012,01,04,07,47,0.00
2012,01,04,07,48,0.00
2012,01,04,07,49,0.00
2012,01,04,07,50,0.00
2012,01,04,07,51,0.00
2012,01,04,07,52,0.00
2012,01,04,07,54,1.60
2012,01,04,07,55,3.20
2012,01,04,07,56,0.00
2012,01,04,07,57,1.60
2012,01,04,07,58,0.00
2012,01,04,07,59,1.60
2012,01,04,08,00,1.60
2012,01,04,08,01,1.60
2012,01,04,08,02,3.20
2012,01,04,08,03,0.00
2012,01,04,08,04,1.60
2012,01,04,08,05,3.20
2012,01,04,08,06,6.40
2012,01,04,08,07,3.20
2012,01,04,08,08,3.20
2012,01,04,08,09,8.00
2012,01,04,08,10,11.30
2012,01,04,08,11,1.60
2012,01,04,08,12,3.20
2012,01,04,08,13,1.60
2012,01,04,08,14,6.40
2012,01,04,08,15,3.20
2012,01,04,08,16,1.60
2012,01,04,08,17,3.20
2012,01,04,08,18,0.00
2012,01,04,08,19,0.00
2012,01,04,08,20,0.00
2012,01,04,08,21,1.60
2012,01,04,08,23,0.00
2012,01,04,08,24,0.00
2012,01,04,08,25,0.00
2012,01,04,08,26,0.00
2012,01,04,08,27,0.00
2012,01,04,08,28,1.60
2012,01,04,08,29,0.00
2012,01,04,08,30,1.60
2012,01,04,08,32,3.20
2012,01,04,08,33,4.80
2012,01,04,08,34,3.20
2012,01,04,08,35,0.00
2012,01,04,08,37,0.00
2012,01,04,08,38,0.00
2012,01,04,08,39,0.00
2012,01,04,08,40,0.00
2012,01,04,08,41,0.00
2012,01,04,08,43,0.00
2012,01,04,08,44,0.00
2012,01,04,08,45,0.00
2012,01,04,08,46,0.00
2012,01,04,08,47,1.60
2012,01,04,08,49,0.00
2012,01,04,08,50,0.00
2012,01,04,08,51,0.00
2012,01,04,08,52,1.60
2012,01,04,08,53,0.00
2012,01,04,08,55,0.00
2012,01,04,08,56,0.00
2012,01,04,08,57,0.00
2012,01,04,08,58,0.00
2012,01,04,09,00,0.00
2012,01,04,09,01,0.00
2012,01,04,09,02,0.00
2012,01,04,09,03,1.60
2012,01,04,09,04,0.00
2012,01,04,09,05,1.60
2012,01,04,09,07,0.00
2012,01,04,09,08,0.00
2012,01,04,09,09,0.00
2012,01,04,09,10,0.00
2012,01,04,09,12,0.00
2012,01,04,09,13,0.00
2012,01,04,09,14,0.00
2012,01,04,09,15,0.00
2012,01,04,09,17,0.00
2012,01,04,09,18,0.00
2012,01,04,09,19,0.00
2012,01,04,09,20,0.00
2012,01,04,09,22,1.60
2012,01,04,09,23,0.00
2012,01,04,09,24,0.00
2012,01,04,09,25,0.00
2012,01,04,09,26,0.00
2012,01,04,09,28,1.60
2012,01,04,09,29,1.60
2012,01,04,09,30,0.00
2012,01,04,09,31,0.00
2012,01,04,09,33,0.00
2012,01,04,09,34,0.00
2012,01,04,09,35,0.00
2012,01,04,09,36,0.00
2012,01,04,09,37,0.00
2012,01,04,09,39,0.00
2012,01,04,09,40,0.00
2012,01,04,09,41,0.00
2012,01,04,09,42,0.00
2012,01,04,09,44,1.60
2012,01,04,09,45,0.00
2012,01,04,09,46,0.00
2012,01,04,09,47,3.20
2012,01,04,09,49,3.20
2012,01,04,09,50,3.20
2012,01,04,09,51,3.20
2012,01,04,09,52,1.60
2012,01,04,09,53,1.60
2012,01,04,09,54,0.00
2012,01,04,09,55,0.00
2012,01,04,09,56,3.20
2012,01,04,09,57,3.20
2012,01,04,09,59,3.20
2012,01,04,10,00,3.20
2012,01,04,10,01,0.00
2012,01,04,10,02,0.00
2012,01,04,10,04,0.00
2012,01,04,10,05,1.60
2012,01,04,10,06,1.60
2012,01,04,10,07,0.00
2012,01,04,10,09,0.00
2012,01,04,10,10,0.00
2012,01,04,10,11,0.00
2012,01,04,10,12,0.00
2012,01,04,10,14,0.00
2012,01,04,10,15,0.00
2012,01,04,10,16,0.00
2012,01,04,10,17,0.00
2012,01,04,10,18,0.00
2012,01,04,10,20,0.00
2012,01,04,10,21,0.00
2012,01,04,10,22,0.00
2012,01,04,10,23,0.00
2012,01,04,10,24,1.60
2012,01,04,10,25,1.60
2012,01,04,10,26,0.00
2012,01,04,10,27,0.00
2012,01,04,10,28,0.00
2012,01,04,10,30,0.00
2012,01,04,10,31,0.00
2012,01,04,10,32,0.00
2012,01,04,10,33,0.00
2012,01,04,10,34,0.00
2012,01,04,10,36,0.00
2012,01,04,10,37,0.00
2012,01,04,10,38,0.00
2012,01,04,10,39,0.00
2012,01,04,10,40,0.00
2012,01,04,10,41,3.20
2012,01,04,10,42,6.40
2012,01,04,10,43,4.80
2012,01,04,10,44,4.80
2012,01,04,10,45,3.20
2012,01,04,10,46,3.20
2012,01,04,10,47,1.60
2012,01,04,10,48,1.60
2012,01,04,10,49,0.00
2012,01,04,10,51,0.00
2012,01,04,10,52,0.00
2012,01,04,10,53,0.00
2012,01,04,10,54,0.00
2012,01,04,10,56,0.00
2012,01,04,10,57,1.60
2012,01,04,10,58,0.00
2012,01,04,10,59,0.00
2012,01,04,11,00,0.00
2012,01,04,11,02,0.00
2012,01,04,11,03,0.00
2012,01,04,11,04,0.00
2012,01,04,11,05,3.20
2012,01,04,11,07,1.60
2012,01,04,11,08,0.00
2012,01,04,11,09,0.00
2012,01,04,11,10,1.60
2012,01,04,11,12,3.20
2012,01,04,11,13,1.60
2012,01,04,11,14,1.60
2012,01,04,11,15,1.60
2012,01,04,11,17,0.00
2012,01,04,11,18,4.80
2012,01,04,11,19,3.20
2012,01,04,11,20,0.00
2012,01,04,11,21,0.00
2012,01,04,11,22,0.00
2012,01,04,11,23,3.20
2012,01,04,11,24,3.20
2012,01,04,11,25,4.80
2012,01,04,11,26,3.20
2012,01,04,11,27,1.60
2012,01,04,11,28,1.60
2012,01,04,11,29,3.20
2012,01,04,11,30,3.20
2012,01,04,11,31,1.60
2012,01,04,11,32,1.60
2012,01,04,11,33,1.60
2012,01,04,11,34,0.00
2012,01,04,11,35,4.80
2012,01,04,11,36,1.60
2012,01,04,11,37,0.00
2012,01,04,11,38,0.00
2012,01,04,11,39,0.00
2012,01,04,11,40,0.00
2012,01,04,11,41,0.00
2012,01,04,11,42,0.00
2012,01,04,11,43,0.00
2012,01,04,11,44,0.00
2012,01,04,11,46,3.20
2012,01,04,11,47,3.20
2012,01,04,11,48,1.60
2012,01,04,11,49,1.60
2012,01,04,11,50,3.20
2012,01,04,11,51,0.00
2012,01,04,11,52,3.20
2012,01,04,11,53,1.60
2012,01,04,11,54,4.80
2012,01,04,11,55,3.20
2012,01,04,11,56,1.60
2012,01,04,11,57,0.00
2012,01,04,11,58,4.80
2012,01,04,11,59,3.20
2012,01,04,12,00,1.60
2012,01,04,12,01,3.20
2012,01,04,12,02,0.00
2012,01,04,12,03,0.00
2012,01,04,12,04,3.20
2012,01,04,12,06,1.60
2012,01,04,12,07,0.00
2012,01,04,12,08,1.60
2012,01,04,12,09,1.60
2012,01,04,12,10,0.00
2012,01,04,12,11,0.00
2012,01,04,12,12,0.00
2012,01,04,12,13,0.00
2012,01,04,12,14,1.60
2012,01,04,12,15,1.60
2012,01,04,12,16,1.60
2012,01,04,12,17,8.00
2012,01,04,12,18,3.20
2012,01,04,12,19,0.00
2012,01,04,12,20,3.20
2012,01,04,12,22,0.00
2012,01,04,12,23,1.60
2012,01,04,12,24,1.60
2012,01,04,12,25,0.00
2012,01,04,12,27,0.00
2012,01,04,12,28,1.60
2012,01,04,12,29,1.60
2012,01,04,12,30,3.20
2012,01,04,12,31,0.00
2012,01,04,12,32,4.80
2012,01,04,12,33,0.00
2012,01,04,12,34,6.40
2012,01,04,12,35,3.20
2012,01,04,12,36,6.40
2012,01,04,12,38,0.00
2012,01,04,12,39,0.00
2012,01,04,12,40,0.00
2012,01,04,12,41,1.60
2012,01,04,12,43,6.40
2012,01,04,12,44,3.20
2012,01,04,12,45,0.00
2012,01,04,12,46,1.60
2012,01,04,12,47,1.60
2012,01,04,12,48,1.60
2012,01,04,12,49,3.20
2012,01,04,12,50,1.60
2012,01,04,12,51,6.40
2012,01,04,12,52,0.00
2012,01,04,12,53,4.80
2012,01,04,12,54,3.20
2012,01,04,12,55,3.20
2012,01,04,12,56,1.60
2012,01,04,12,57,8.00
2012,01,04,12,58,1.60
2012,01,04,12,59,8.00
2012,01,04,13,00,3.20
2012,01,04,13,02,6.40
2012,01,04,13,03,6.40
2012,01,04,13,04,1.60
2012,01,04,13,05,6.40
2012,01,04,13,06,4.80
2012,01,04,13,07,6.40
2012,01,04,13,08,0.00
2012,01,04,13,09,4.80
2012,01,04,13,10,6.40
2012,01,04,13,11,4.80
2012,01,04,13,12,3.20
2012,01,04,13,13,3.20
2012,01,04,13,14,3.20
2012,01,04,13,15,3.20
2012,01,04,13,17,3.20
2012,01,04,13,18,3.20
2012,01,04,13,19,6.40
2012,01,04,13,20,3.20
2012,01,04,13,21,3.20
2012,01,04,13,23,6.40
2012,01,04,13,24,3.20
2012,01,04,13,25,6.40
2012,01,04,13,26,1.60
2012,01,04,13,28,8.00
2012,01,04,13,29,3.20
2012,01,04,13,30,1.60
2012,01,04,13,31,0.00
2012,01,04,13,32,1.60
2012,01,04,13,33,3.20
2012,01,04,13,34,8.00
2012,01,04,13,35,0.00
2012,01,04,13,36,3.20
2012,01,04,13,37,0.00
2012,01,04,13,38,9.70
2012,01,04,13,39,1.60
2012,01,04,13,40,3.20
2012,01,04,13,41,0.00
2012,01,04,13,42,1.60
2012,01,04,13,43,1.60
2012,01,04,13,44,3.20
2012,01,04,13,45,6.40
2012,01,04,13,46,8.00
2012,01,04,13,47,1.60
2012,01,04,13,48,0.00
2012,01,04,13,49,1.60
2012,01,04,13,50,8.00
2012,01,04,13,51,3.20
2012,01,04,13,52,0.00
2012,01,04,13,53,3.20
2012,01,04,13,54,9.70
2012,01,04,13,55,8.00
2012,01,04,13,56,3.20
2012,01,04,13,57,1.60
2012,01,04,13,58,6.40
2012,01,04,13,59,1.60
2012,01,04,14,00,1.60
2012,01,04,14,01,4.80
2012,01,04,14,03,3.20
2012,01,04,14,04,8.00
2012,01,04,14,05,0.00
2012,01,04,14,06,0.00
2012,01,04,14,07,3.20
2012,01,04,14,08,6.40
2012,01,04,14,09,12.90
2012,01,04,14,10,11.30
2012,01,04,14,11,6.40
2012,01,04,14,12,6.40
2012,01,04,14,13,3.20
2012,01,04,14,14,3.20
2012,01,04,14,15,8.00
2012,01,04,14,16,9.70
2012,01,04,14,17,6.40
2012,01,04,14,18,6.40
2012,01,04,14,19,6.40
2012,01,04,14,20,3.20
2012,01,04,14,22,1.60
2012,01,04,14,23,3.20
2012,01,04,14,24,6.40
2012,01,04,14,25,3.20
2012,01,04,14,26,0.00
2012,01,04,14,27,9.70
2012,01,04,14,28,6.40
2012,01,04,14,29,9.70
2012,01,04,14,30,11.30
2012,01,04,14,31,0.00
2012,01,04,14,32,3.20
2012,01,04,14,33,1.60
2012,01,04,14,34,9.70
2012,01,04,14,35,8.00
2012,01,04,14,37,1.60
2012,01,04,14,38,1.60
2012,01,04,14,39,8.00
2012,01,04,14,40,3.20
2012,01,04,14,41,9.70
2012,01,04,14,42,1.60
2012,01,04,14,43,1.60
2012,01,04,14,44,1.60
2012,01,04,14,45,0.00
2012,01,04,14,46,6.40
2012,01,04,14,47,0.00
2012,01,04,14,48,4.80
2012,01,04,14,49,6.40
2012,01,04,14,50,3.20
2012,01,04,14,51,6.40
2012,01,04,14,52,4.80
2012,01,04,14,53,0.00
2012,01,04,14,55,1.60
2012,01,04,14,56,9.70
2012,01,04,14,57,6.40
2012,01,04,14,58,1.60
2012,01,04,14,59,11.30
2012,01,04,15,00,6.40
2012,01,04,15,01,9.70
2012,01,04,15,02,1.60
2012,01,04,15,03,14.50
2012,01,04,15,05,9.70
2012,01,04,15,06,3.20
2012,01,04,15,07,6.40
2012,01,04,15,08,8.00
2012,01,04,15,09,3.20
2012,01,04,15,10,8.00
2012,01,04,15,11,12.90
2012,01,04,15,12,4.80
2012,01,04,15,14,8.00
2012,01,04,15,15,1.60
2012,01,04,15,16,4.80
2012,01,04,15,17,3.20
2012,01,04,15,18,14.50
2012,01,04,15,19,3.20
2012,01,04,15,20,14.50
2012,01,04,15,21,1.60
2012,01,04,15,22,4.80
2012,01,04,15,23,9.70
2012,01,04,15,24,8.00
2012,01,04,15,25,6.40
2012,01,04,15,26,8.00
2012,01,04,15,27,6.40
2012,01,04,15,28,6.40
2012,01,04,15,29,3.20
2012,01,04,15,30,8.00
2012,01,04,15,31,9.70
2012,01,04,15,32,0.00
2012,01,04,15,33,3.20
2012,01,04,15,34,9.70
2012,01,04,15,36,1.60
2012,01,04,15,37,1.60
2012,01,04,15,38,6.40
2012,01,04,15,39,6.40
2012,01,04,15,40,4.80
2012,01,04,15,41,3.20
2012,01,04,15,42,3.20
2012,01,04,15,43,3.20
2012,01,04,15,45,9.70
2012,01,04,15,46,4.80
2012,01,04,15,47,3.20
2012,01,04,15,48,6.40
2012,01,04,15,49,1.60
2012,01,04,15,50,0.00
2012,01,04,15,51,1.60
2012,01,04,15,52,6.40
2012,01,04,15,53,6.40
2012,01,04,15,54,0.00
2012,01,04,15,55,3.20
2012,01,04,15,56,12.90
2012,01,04,15,57,8.00
2012,01,04,15,58,6.40
2012,01,04,16,00,8.00
2012,01,04,16,01,0.00
2012,01,04,16,02,1.60
2012,01,04,16,03,8.00
2012,01,04,16,05,0.00
2012,01,04,16,06,0.00
2012,01,04,16,07,9.70
2012,01,04,16,09,1.60
2012,01,04,16,10,3.20
2012,01,04,16,11,8.00
2012,01,04,16,12,6.40
2012,01,04,16,13,3.20
2012,01,04,16,14,6.40
2012,01,04,16,15,1.60
2012,01,04,16,17,0.00
2012,01,04,16,18,8.00
2012,01,04,16,19,6.40
2012,01,04,16,20,6.40
2012,01,04,16,21,1.60
2012,01,04,16,22,6.40
2012,01,04,16,23,6.40
2012,01,04,16,25,6.40
2012,01,04,16,26,0.00
2012,01,04,16,27,1.60
2012,01,04,16,28,8.00
2012,01,04,16,29,1.60
2012,01,04,16,30,6.40
2012,01,04,16,31,3.20
2012,01,04,16,32,1.60
2012,01,04,16,33,6.40
2012,01,04,16,35,1.60
2012,01,04,16,36,1.60
2012,01,04,16,37,1.60
2012,01,04,16,39,1.60
2012,01,04,16,40,1.60
2012,01,04,16,41,0.00
2012,01,04,16,42,0.00
2012,01,04,16,43,0.00
2012,01,04,16,44,0.00
2012,01,04,16,45,3.20
2012,01,04,16,46,0.00
2012,01,04,16,47,1.60
2012,01,04,16,48,1.60
2012,01,04,16,49,1.60
2012,01,04,16,50,3.20
2012,01,04,16,51,1.60
2012,01,04,16,52,3.20
2012,01,04,16,53,1.60
2012,01,04,16,55,1.60
2012,01,04,16,56,1.60
2012,01,04,16,57,0.00
2012,01,04,16,58,0.00
2012,01,04,16,59,0.00
2012,01,04,17,00,3.20
2012,01,04,17,01,1.60
2012,01,04,17,02,3.20
2012,01,04,17,04,1.60
2012,01,04,17,05,3.20
2012,01,04,17,06,1.60
2012,01,04,17,07,1.60
2012,01,04,17,09,1.60
2012,01,04,17,10,0.00
2012,01,04,17,11,1.60
2012,01,04,17,12,3.20
2012,01,04,17,13,3.20
2012,01,04,17,14,1.60
2012,01,04,17,15,1.60
2012,01,04,17,16,0.00
2012,01,04,17,17,1.60
2012,01,04,17,18,1.60
2012,01,04,17,19,1.60
2012,01,04,17,20,0.00
2012,01,04,17,21,0.00
2012,01,04,17,22,0.00
2012,01,04,17,24,0.00
2012,01,04,17,25,0.00
2012,01,04,17,26,3.20
2012,01,04,17,27,1.60
2012,01,04,17,28,1.60
2012,01,04,17,29,1.60
2012,01,04,17,30,1.60
2012,01,04,17,31,0.00
2012,01,04,17,32,3.20
2012,01,04,17,33,3.20
2012,01,04,17,35,3.20
2012,01,04,17,36,3.20
2012,01,04,17,37,3.20
2012,01,04,17,38,3.20
2012,01,04,17,40,0.00
2012,01,04,17,41,0.00
2012,01,04,17,42,1.60
2012,01,04,17,43,3.20
2012,01,04,17,45,3.20
2012,01,04,17,46,0.00
2012,01,04,17,47,0.00
2012,01,04,17,48,3.20
2012,01,04,17,50,1.60
2012,01,04,17,51,3.20
2012,01,04,17,52,0.00
2012,01,04,17,53,0.00
2012,01,04,17,54,0.00
2012,01,04,17,55,1.60
2012,01,04,17,56,0.00
2012,01,04,17,57,1.60
2012,01,04,17,58,1.60
2012,01,04,18,00,0.00
2012,01,04,18,01,0.00
2012,01,04,18,02,0.00
2012,01,04,18,03,0.00
2012,01,04,18,04,0.00
2012,01,04,18,05,0.00
2012,01,04,18,06,0.00
2012,01,04,18,07,0.00
2012,01,04,18,08,0.00
2012,01,04,18,10,0.00
2012,01,04,18,11,0.00
2012,01,04,18,12,0.00
2012,01,04,18,13,0.00
2012,01,04,18,14,0.00
2012,01,04,18,16,0.00
2012,01,04,18,17,0.00
2012,01,04,18,18,0.00
2012,01,04,18,19,0.00
2012,01,04,18,21,0.00
2012,01,04,18,22,3.20
2012,01,04,18,23,1.60
2012,01,04,18,24,0.00
2012,01,04,18,25,6.40
2012,01,04,18,26,3.20
2012,01,04,18,27,3.20
2012,01,04,18,28,8.00
2012,01,04,18,30,8.00
2012,01,04,18,31,25.70
2012,01,04,18,32,22.50
2012,01,04,18,33,14.50
2012,01,04,18,35,16.10
2012,01,04,18,36,16.10
2012,01,04,18,37,32.20
2012,01,04,18,38,19.30
2012,01,04,18,39,11.30
2012,01,04,18,41,24.10
2012,01,04,18,42,11.30
2012,01,04,18,43,11.30
2012,01,04,18,45,14.50
2012,01,04,18,46,11.30
2012,01,04,18,47,24.10
2012,01,04,18,48,25.70
2012,01,04,18,50,24.10
2012,01,04,18,51,9.70
2012,01,04,18,52,24.10
2012,01,04,18,53,14.50
2012,01,04,18,55,19.30
2012,01,04,18,56,22.50
2012,01,04,18,57,19.30
2012,01,04,18,58,14.50
2012,01,04,18,59,11.30
2012,01,04,19,00,19.30
2012,01,04,19,01,11.30
2012,01,04,19,02,12.90
2012,01,04,19,04,8.00
2012,01,04,19,05,9.70
2012,01,04,19,06,9.70
2012,01,04,19,08,6.40
2012,01,04,19,09,9.70
2012,01,04,19,10,9.70
2012,01,04,19,11,6.40
2012,01,04,19,13,16.10
2012,01,04,19,14,17.70
2012,01,04,19,15,11.30
2012,01,04,19,17,25.70
2012,01,04,19,18,27.40
2012,01,04,19,19,12.90
2012,01,04,19,20,24.10
2012,01,04,19,21,19.30
2012,01,04,19,23,16.10
2012,01,04,19,24,25.70
2012,01,04,19,25,24.10
2012,01,04,19,26,22.50
2012,01,04,19,28,20.90
2012,01,04,19,29,11.30
2012,01,04,19,30,16.10
2012,01,04,19,31,11.30
2012,01,04,19,32,20.90
2012,01,04,19,33,12.90
2012,01,04,19,34,19.30
2012,01,04,19,35,16.10
2012,01,04,19,36,8.00
2012,01,04,19,38,11.30
2012,01,04,19,39,12.90
2012,01,04,19,40,22.50
2012,01,04,19,42,6.40
2012,01,04,19,43,9.70
2012,01,04,19,44,4.80
2012,01,04,19,45,11.30
2012,01,04,19,46,16.10
2012,01,04,19,48,14.50
2012,01,04,19,49,6.40
2012,01,04,19,50,6.40
2012,01,04,19,51,12.90
2012,01,04,19,53,9.70
2012,01,04,19,54,9.70
2012,01,04,19,55,20.90
2012,01,04,19,56,16.10
2012,01,04,19,58,11.30
2012,01,04,19,59,9.70
2012,01,04,20,00,8.00
2012,01,04,20,01,9.70
2012,01,04,20,02,9.70
2012,01,04,20,03,17.70
2012,01,04,20,04,6.40
2012,01,04,20,05,9.70
2012,01,04,20,07,6.40
2012,01,04,20,08,6.40
2012,01,04,20,09,16.10
2012,01,04,20,10,9.70
2012,01,04,20,11,9.70
2012,01,04,20,12,14.50
2012,01,04,20,13,16.10
2012,01,04,20,14,12.90
2012,01,04,20,15,11.30
2012,01,04,20,17,20.90
2012,01,04,20,18,12.90
2012,01,04,20,19,11.30
2012,01,04,20,20,9.70
2012,01,04,20,22,16.10
2012,01,04,20,23,8.00
2012,01,04,20,24,11.30
2012,01,04,20,25,11.30
2012,01,04,20,27,12.90
2012,01,04,20,28,12.90